Weather History for Tyler, TX

Change the Weather History Date:

Monday, February 16, 2009

  Actual Average Record
Temperature  
Mean Temperature 48 °F 51 °F  
Max Temperature 56 °F 61 °F 82 °F (1979)
Min Temperature 40 °F 41 °F 12 °F (1903)
Degree Days  
Heating Degree Days 17 14  
Month to date heating degree days 148 256  
Since 1 July heating degree days 1511 1734  
Cooling Degree Days 0 0  
Month to date cooling degree days 4 0  
Year to date cooling degree days 14 4  
Moisture  
Dew Point 33 °F    
Average Humidity 60    
Maximum Humidity 79    
Minimum Humidity 41    
Precipitation  
Precipitation T in 0.14 in 2.02 in (2001)
Month to date precipitation 0.82 2.14  
Year to date precipitation 1.92 5.20  
Snow  
Snow 0.00 in - - ()
Month to date snowfall 0.0  
Since 1 July snowfall 0.0  
Snow Depth 0.00 in    
Sea Level Pressure  
Sea Level Pressure 30.31 in    
Wind  
Wind Speed 7 mph (East)    
Max Wind Speed 13 mph    
Max Gust Speed 17 mph    
Visibility 10 miles    
Events      
T = Trace of Precipitation, MM = Missing Value Source: NWS Daily Summary

Daily Weather History Graph

Daily Weather History Graph

Search for Another Location

Airport:

Trip Planner

Search our weather history database for the weather conditions in past years. The results will help you decide how hot, cold, wet, or windy it might be!

Date:

Astronomy

Feb. 16, 2009 Rise Set
Actual Time 7:03 AM CST 6:08 PM CST
Civil Twilight 6:38 AM CST 6:33 PM CST
Nautical Twilight 6:09 AM CST 7:02 PM CST
Astronomical Twilight 5:40 AM CST 7:31 PM CST
Moon 12:46 AM CST (2/16) 10:57 AM CST (2/16)
Length of Visible Light 11h 55m
Length of Day
11h 05m
Waning Gibbous, 52% of the Moon is Illuminated
Feb 16
Waning Gibbous
Feb 16
Last Quarter
Feb 24
New
Mar 4
First Quarter
Mar 10
Full

Hourly Weather History & Observations

Time (CST) Temp. Windchill Dew Point Humidity Pressure Visibility Wind Dir Wind Speed Gust Speed Precip Events Conditions
1:53 AM 43.0 °F 40.3 °F 36.0 °F 76% 30.33 in 9.0 mi North 4.6 mph - N/A   Clear
2:53 AM 42.1 °F 37.7 °F 36.0 °F 79% 30.32 in 9.0 mi NE 6.9 mph - N/A   Clear
3:53 AM 41.0 °F 37.1 °F 35.1 °F 79% 30.33 in 9.0 mi NE 5.8 mph - N/A   Clear
4:53 AM 41.0 °F 36.4 °F 34.0 °F 76% 30.35 in 10.0 mi NE 6.9 mph - N/A   Clear
5:53 AM 41.0 °F 37.1 °F 33.1 °F 73% 30.36 in 10.0 mi ENE 5.8 mph - N/A   Clear
6:53 AM 39.9 °F 33.9 °F 33.1 °F 77% 30.37 in 10.0 mi East 9.2 mph - N/A   Clear
7:53 AM 39.9 °F 33.9 °F 32.0 °F 73% 30.39 in 8.0 mi East 9.2 mph - N/A   Clear
8:53 AM 41.0 °F 35.2 °F 30.9 °F 67% 30.40 in 9.0 mi East 9.2 mph - N/A   Clear
9:53 AM 42.1 °F 35.7 °F 30.0 °F 62% 30.40 in 10.0 mi ENE 11.5 mph - N/A   Clear
10:53 AM 45.0 °F 40.1 °F 30.0 °F 56% 30.40 in 10.0 mi East 9.2 mph - N/A   Clear
11:53 AM 48.0 °F - 30.0 °F 50% 30.38 in 10.0 mi East 5.8 mph - N/A   Clear
12:53 PM 51.1 °F - 30.9 °F 46% 30.34 in 10.0 mi Variable 6.9 mph - N/A   Clear
1:53 PM 52.0 °F - 30.9 °F 45% 30.31 in 10.0 mi ENE 4.6 mph - N/A   Mostly Cloudy
2:53 PM 55.0 °F - 32.0 °F 42% 30.28 in 10.0 mi Variable 5.8 mph - N/A   Clear
3:53 PM 55.0 °F - 32.0 °F 42% 30.27 in 10.0 mi ESE 8.1 mph - N/A   Clear
4:53 PM 55.0 °F - 32.0 °F 42% 30.26 in 10.0 mi ESE 8.1 mph - N/A   Partly Cloudy
5:53 PM 54.0 °F - 32.0 °F 43% 30.25 in 10.0 mi East 5.8 mph - N/A   Clear
6:53 PM 52.0 °F - 33.1 °F 49% 30.25 in 10.0 mi ESE 5.8 mph - N/A   Clear
7:53 PM 50.0 °F - 33.1 °F 52% 30.25 in 10.0 mi ESE 6.9 mph - N/A   Clear
8:53 PM 48.9 °F - 34.0 °F 56% 30.25 in 10.0 mi SSE 5.8 mph - N/A   Mostly Cloudy
9:53 PM 48.0 °F - 35.1 °F 61% 30.25 in 10.0 mi SSE 3.5 mph - N/A   Partly Cloudy
10:53 PM 48.9 °F - 36.0 °F 61% 30.23 in 10.0 mi SSE 6.9 mph - N/A   Mostly Cloudy
11:53 PM 48.9 °F - 36.0 °F 61% 30.21 in 10.0 mi SE 8.1 mph - 0.00 in   Overcast